Temperature
22 21 20 19 19 19 20 20 20 19 16 15 15 15 16 13 11 11 11 11 10 9 9 7 6 5 3 2 2 2 2 2 2 2 1 1 0 -0 -1 -2 -3 -4 -4 -5
21 20 19 19 19 18 19 19 20 17 16 15 15 15 16 14 11 11 12 12 11 10 9 8 7 5 4 3 2 1 2 2 2 2 1 1 0 -0 -1 -3 -3 -4 -5 -6
21 18 18 18 19 19 19 19 18 18 18 16 14 16 16 16 13 12 12 12 12 11 10 9 7 5 4 2 2 1 2 2 2 1 1 0 -0 -1 -2 -3 -4 -4 -6 -6
20 18 18 18 19 18 18 17 17 17 15 16 16 15 15 14 13 12 12 12 12 12 11 10 8 6 4 3 2 1 1 2 1 1 1 -0 -1 -1 -2 -3 -4 -5 -6 -7
19 18 18 18 18 17 17 16 16 16 15 16 17 16 17 15 14 13 13 13 12 12 11 10 9 7 5 3 2 2 1 1 1 1 0 -0 -1 -2 -3 -4 -5 -5 -6 -7
18 17 17 17 17 16 16 16 15 15 15 16 18 17 18 16 17 16 15 15 14 12 11 10 9 7 5 3 2 2 1 1 1 1 0 -0 -1 -2 -3 -4 -5 -5 -6 -7
17 17 17 16 16 16 15 16 16 16 15 17 17 17 17 18 18 18 16 16 14 13 11 10 8 6 5 3 2 2 1 1 1 0 -0 -1 -1 -2 -3 -4 -5 -6 -6 -7
19 18 16 16 17 16 17 17 16 16 17 18 16 16 18 18 17 17 16 15 14 12 11 10 8 6 5 3 2 2 1 1 1 0 -0 -1 -2 -3 -3 -4 -5 -6 -7 -8
19 18 15 16 16 15 17 17 16 15 17 16 17 19 18 16 15 14 14 13 12 12 10 9 7 6 4 3 2 1 1 1 1 0 -0 -1 -2 -3 -3 -4 -5 -6 -7 -8
17 17 16 14 14 14 15 15 15 15 16 15 17 19 17 15 16 14 13 13 13 12 10 9 7 5 4 2 1 1 1 1 0 -0 -1 -1 -2 -3 -3 -4 -5 -6 -7 -8
16 16 16 14 14 15 14 15 15 15 16 14 15 16 20 19 19 18 16 16 15 13 11 9 7 5 3 2 1 1 1 1 0 -0 -1 -1 -2 -3 -3 -4 -5 -6 -7 -7
16 15 16 16 15 14 16 16 16 15 15 15 14 15 19 19 19 18 17 16 15 14 12 9 7 4 2 1 1 1 1 1 0 -0 -1 -1 -2 -3 -3 -4 -5 -6 -7 -7
15 14 16 16 14 13 14 15 16 15 14 13 13 15 18 18 17 17 17 16 14 13 11 8 6 4 3 1 1 1 1 1 0 -0 -1 -2 -2 -3 -3 -4 -5 -6 -6 -7
12 13 14 16 16 15 14 14 14 14 12 12 13 15 17 17 17 17 17 16 14 12 10 8 6 4 3 1 1 1 1 1 0 -0 -1 -2 -2 -3 -3 -4 -5 -5 -6 -7
11 12 14 15 16 16 15 15 14 13 14 14 14 16 17 17 17 18 18 16 14 12 10 8 6 4 3 1 1 1 1 1 0 -0 -1 -2 -2 -3 -3 -4 -4 -5 -6 -7
11 11 13 13 15 14 13 13 14 13 14 14 14 15 16 17 18 17 16 16 14 13 11 9 7 5 3 2 1 1 1 1 0 -0 -1 -2 -2 -3 -3 -4 -4 -5 -5 -7
11 11 12 12 14 13 12 14 13 12 13 13 13 14 15 16 16 16 16 15 14 14 12 10 8 6 4 3 2 2 1 1 0 -0 -1 -2 -2 -2 -3 -4 -4 -5 -5 -6
11 11 11 10 13 11 15 16 15 14 13 13 13 13 14 15 16 16 16 16 15 14 13 11 9 7 5 3 2 2 1 1 0 -1 -1 -2 -2 -2 -3 -3 -4 -4 -5 -6
10 11 10 10 10 12 15 15 14 13 12 13 13 13 14 16 14 15 17 17 16 15 13 12 10 8 5 3 3 2 1 1 0 -0 -1 -2 -2 -2 -3 -3 -4 -4 -5 -6
8 9 9 9 9 10 14 14 14 13 12 15 14 13 15 14 10 13 17 16 15 14 13 11 10 7 5 4 3 2 1 1 0 -0 -1 -2 -2 -2 -3 -3 -4 -4 -5 -6
6 7 7 8 8 10 14 11 12 13 14 18 18 17 16 13 13 16 16 15 14 13 12 11 9 8 6 5 4 3 2 1 1 -0 -1 -2 -2 -2 -3 -3 -4 -4 -5 -5
8 7 7 8 8 10 12 10 11 14 17 18 18 18 17 17 17 16 16 15 14 12 11 10 8 7 6 5 4 3 2 2 0 -1 -1 -2 -2 -2 -3 -3 -4 -4 -5 -5
11 11 10 10 12 15 13 14 16 16 16 17 17 17 17 16 16 16 16 15 14 12 11 9 8 7 6 5 4 3 2 1 0 -1 -1 -2 -2 -3 -3 -3 -4 -4 -5 -5
12 13 12 11 12 14 15 15 16 16 16 17 17 17 16 16 16 16 16 15 14 12 11 9 7 6 6 5 4 3 2 1 0 -0 -1 -2 -2 -3 -3 -3 -4 -4 -5 -6
14 11 10 10 12 14 15 16 17 17 17 17 17 17 16 16 15 15 15 14 13 12 10 9 7 7 6 5 4 3 2 1 0 -0 -1 -2 -2 -3 -3 -3 -4 -4 -5 -6
13 12 11 13 14 13 15 16 17 16 16 16 16 16 15 15 15 14 14 13 13 12 10 9 8 6 6 5 4 3 2 1 0 -0 -1 -2 -2 -3 -3 -3 -4 -4 -5 -6
Wind_Speed
4 4 1 5 5 6 7 6 8 3 8 7 11 13 10 15 13 12 12 13 13 13 13 13 12 12 10 9 8 6 4 2 1 1 2 3 3 4 6 7 8 10 11 13
5 2 5 3 2 5 7 8 6 5 6 6 8 12 10 14 17 15 13 13 13 13 13 14 13 12 11 11 9 7 5 3 2 1 1 3 4 4 7 7 7 10 12 14
3 4 3 2 5 6 8 3 5 5 3 8 5 7 4 4 9 12 12 11 12 14 14 14 14 13 11 11 10 7 5 4 3 1 2 3 3 4 4 3 4 9 13 15
3 3 1 5 4 2 4 6 3 5 6 3 5 4 7 6 7 11 12 13 13 12 12 13 15 14 13 10 9 8 6 5 4 3 3 3 4 4 5 4 4 10 13 14
3 4 4 5 2 1 3 2 4 6 6 6 6 5 4 7 8 12 14 15 14 12 12 12 14 14 12 11 10 8 7 6 5 4 3 4 5 4 4 5 6 6 10 13
4 1 2 3 2 2 4 5 6 4 3 5 5 4 4 7 7 8 11 13 13 12 11 11 12 13 10 11 10 8 7 7 6 5 5 5 5 6 7 7 6 6 5 8
6 5 4 1 4 6 5 4 3 3 4 3 3 3 7 7 7 7 8 10 10 11 11 11 12 13 13 12 11 9 9 8 7 6 5 5 5 6 6 6 6 7 6 6
6 6 7 5 2 3 3 3 3 3 3 2 4 6 6 8 8 6 4 5 7 9 10 11 12 13 13 13 12 10 10 8 7 6 5 5 5 4 4 6 6 6 6 6
6 3 3 3 2 3 4 1 2 3 5 5 6 7 4 4 6 7 8 8 10 10 11 11 12 13 13 13 12 11 10 8 7 6 6 6 5 5 6 6 5 5 6 9
5 4 6 4 3 4 4 5 2 3 3 5 8 7 6 9 10 11 11 12 12 11 11 12 12 13 12 12 11 10 9 8 7 6 6 5 5 6 6 6 7 7 7 9
3 4 4 4 7 7 5 4 4 4 3 3 5 7 3 9 6 7 10 10 11 13 13 12 12 12 11 11 11 10 9 8 7 7 6 5 5 6 5 7 7 6 7 8
1 3 5 4 2 3 2 5 6 4 5 5 4 9 6 6 5 6 7 7 8 11 12 12 12 12 11 11 11 10 9 9 8 7 5 5 6 6 7 7 7 7 6 8
1 3 4 2 1 1 3 5 6 4 2 4 5 9 4 5 6 8 10 9 8 10 11 11 12 12 12 12 11 10 10 9 8 7 6 6 6 7 7 7 6 6 7 7
1 4 7 6 2 3 6 8 9 8 6 7 11 15 10 9 8 7 8 10 10 11 12 13 13 13 12 12 12 11 10 9 8 7 6 6 6 6 6 6 7 7 7 8
3 5 7 10 10 7 9 11 12 16 14 11 12 14 15 9 8 7 3 6 9 10 12 14 14 13 13 13 12 11 10 9 9 8 7 6 5 5 6 7 8 8 8 10
4 5 5 7 9 8 10 15 17 18 18 20 19 20 17 12 9 6 6 7 10 11 14 15 15 15 15 15 13 11 10 10 9 8 7 5 5 6 7 7 8 9 9 9
6 5 4 6 2 5 11 15 16 10 12 11 18 16 10 9 8 8 8 9 11 12 13 15 17 16 15 15 13 13 11 9 9 8 7 6 6 6 7 8 9 9 9 9
6 4 3 4 4 11 11 4 6 12 13 14 14 13 10 11 8 8 9 11 12 11 12 14 15 15 13 12 12 12 11 10 9 8 8 7 7 7 7 8 9 9 9 8
3 4 4 3 6 10 12 8 6 8 9 12 18 18 17 11 7 9 12 13 13 11 11 12 13 13 12 13 14 13 11 10 9 9 9 8 8 8 8 8 9 9 8 8
3 3 4 5 6 9 11 2 2 3 8 10 13 15 13 3 4 9 6 6 9 8 8 10 12 12 13 14 15 15 13 12 12 12 10 9 8 8 8 9 8 7 7 8
5 5 7 8 9 12 10 5 6 5 9 6 10 12 10 9 12 8 6 7 8 8 9 11 12 13 14 16 16 15 14 15 13 10 9 9 8 8 8 7 6 7 7 7
12 11 10 8 9 13 8 9 11 12 5 4 7 9 10 11 13 11 10 10 10 9 10 11 12 12 13 16 17 16 17 14 11 10 10 9 8 7 6 6 7 6 6 6
12 13 10 14 14 7 11 12 10 5 7 8 7 9 9 11 13 13 11 11 11 11 11 11 12 12 13 17 18 18 15 13 13 11 10 8 8 7 6 6 6 5 4 4
8 8 7 9 13 12 10 11 12 13 15 15 14 13 12 13 15 15 12 11 11 12 12 12 13 15 16 17 17 15 13 14 14 12 10 8 8 7 6 5 5 4 4 4
9 6 6 10 9 9 13 14 17 18 16 16 16 15 15 15 16 16 13 12 11 12 12 13 16 18 18 17 17 14 14 16 14 12 10 9 8 6 5 5 5 5 5 5
13 11 12 17 11 10 12 9 11 12 14 15 15 16 14 13 16 15 13 12 11 12 13 14 17 17 17 18 18 16 16 17 15 13 11 9 7 6 5 4 4 7 6 9
Wind_Direction
208 242 73 43 26 337 326 314 297 85 151 203 241 255 234 178 192 206 205 205 209 208 198 188 175 163 157 159 170 175 171 152 104 45 330 311 313 302 299 299 310 317 316 314
240 180 65 42 354 292 280 285 304 102 158 214 271 273 256 182 194 202 209 210 210 206 197 186 175 170 170 172 173 170 168 158 151 134 271 257 264 270 281 287 312 313 310 306
343 76 75 274 252 278 271 289 354 343 266 216 267 284 165 145 182 197 216 225 218 207 201 188 179 177 175 175 168 171 160 171 185 181 261 283 283 287 299 321 314 305 303 302
98 116 228 261 256 316 321 54 355 301 298 260 189 286 196 173 197 210 216 222 227 219 202 189 181 180 178 169 149 153 166 187 192 200 241 279 289 291 294 293 283 296 304 307
151 153 229 262 34 351 348 35 281 276 270 278 205 244 205 168 212 219 218 219 220 216 204 190 179 177 169 151 148 159 174 194 194 203 235 257 270 278 287 291 292 298 304 304
90 86 314 355 61 247 303 268 236 258 260 254 172 216 253 194 197 189 196 203 206 202 196 181 165 158 151 145 150 162 182 200 196 205 232 246 266 282 294 298 301 300 295 297
185 185 163 231 251 203 232 276 242 224 223 215 131 227 251 173 160 177 185 185 186 184 179 171 161 160 156 156 161 171 189 203 199 206 227 244 258 269 277 288 292 296 295 294
213 188 165 187 301 329 286 295 330 301 306 323 195 230 245 152 148 149 155 164 171 179 177 175 170 165 164 166 169 178 192 200 198 205 226 240 252 257 262 272 280 285 285 284
322 109 99 78 19 302 287 214 34 309 285 272 253 228 185 123 175 193 204 207 210 201 187 178 170 168 169 172 176 182 187 194 197 204 222 238 249 263 267 273 274 271 275 291
313 296 156 140 217 230 279 327 268 249 284 286 283 264 217 193 216 210 212 215 213 200 187 180 176 174 173 172 173 176 182 192 196 201 220 235 239 252 257 267 273 274 279 290
298 285 170 177 210 200 186 216 231 265 281 248 283 272 219 162 172 194 211 213 205 193 187 183 179 173 168 164 166 175 185 190 195 203 215 236 249 256 262 267 270 273 283 290
192 299 262 186 104 27 220 225 202 219 236 214 253 272 242 173 168 197 223 213 189 182 180 177 173 169 169 170 172 181 187 189 195 197 206 233 250 258 263 268 275 284 285 290
121 252 274 226 314 315 266 242 233 254 302 247 234 259 226 184 204 218 223 219 195 176 172 173 174 177 178 179 181 186 188 187 186 186 204 233 248 257 266 277 284 286 284 286
43 251 241 261 340 184 223 221 207 205 213 233 231 250 256 247 249 246 225 213 196 181 179 182 185 185 183 184 185 186 186 181 179 184 205 231 247 262 276 285 287 284 282 287
196 253 261 270 279 249 241 237 210 213 219 228 245 250 260 267 291 300 273 193 191 186 189 192 192 189 186 185 186 185 183 176 175 184 206 227 249 274 283 284 284 284 283 288
208 248 277 275 257 252 265 253 238 232 233 242 258 271 270 280 277 269 261 230 215 209 201 198 194 191 190 189 186 181 179 172 168 183 203 220 246 262 270 278 282 282 282 280
190 219 255 270 233 327 269 247 225 217 218 211 237 247 270 270 258 255 260 251 233 222 206 199 198 197 193 188 180 178 173 161 165 183 202 220 237 256 266 276 281 281 282 281
194 202 239 276 311 254 248 253 231 219 234 220 240 262 276 271 285 278 261 252 247 228 209 200 196 193 185 173 167 162 158 163 174 190 204 216 228 246 259 267 274 278 278 280
304 203 222 238 257 271 278 251 204 213 264 228 232 251 260 272 321 286 255 235 231 223 204 194 187 180 171 164 160 156 162 170 181 197 207 213 221 237 251 261 268 273 279 284
289 286 221 209 228 249 257 182 98 125 278 243 209 231 248 214 292 276 248 213 219 206 184 175 169 166 165 162 156 162 174 182 196 202 206 209 215 228 244 256 267 277 283 284
173 202 211 221 233 257 261 144 123 183 248 216 197 217 224 204 227 243 211 215 213 200 182 168 167 173 171 162 162 175 184 197 199 192 196 205 213 226 241 255 268 279 285 292
180 183 199 195 215 251 209 152 190 223 272 238 223 225 228 235 250 252 237 228 213 201 185 175 175 176 167 166 172 185 196 195 182 183 190 200 213 228 240 250 265 274 287 301
197 197 196 201 220 250 176 204 228 275 286 275 268 263 253 256 262 262 253 236 217 204 194 183 179 175 173 176 183 192 193 177 175 180 189 199 212 222 230 241 258 274 288 294
224 212 226 240 248 257 242 240 255 259 259 264 266 268 264 260 264 266 260 243 221 205 195 185 179 185 188 187 193 195 179 171 172 180 188 197 206 217 228 237 240 248 265 283
248 197 233 254 264 280 265 246 248 255 258 262 263 259 255 255 262 262 260 246 224 208 195 190 195 198 196 190 195 191 176 170 174 180 187 193 199 205 221 233 234 242 230 239
242 235 241 259 255 253 265 261 254 257 263 264 267 272 265 251 258 262 257 245 223 206 195 197 202 202 196 192 194 189 177 173 174 182 188 191 191 198 206 221 256 274 260 268
Height
1552 1553 1555 1556 1555 1555 1553 1554 1554 1553 1559 1562 1561 1557 1553 1556 1559 1561 1562 1564 1565 1566 1568 1569 1569 1568 1567 1567 1568 1568 1567 1566 1565 1563 1560 1558 1556 1553 1550 1546 1543 1539 1535 1530
1553 1554 1555 1554 1555 1556 1555 1555 1552 1556 1558 1559 1557 1552 1546 1548 1550 1553 1556 1558 1559 1561 1563 1563 1563 1563 1562 1562 1563 1563 1563 1562 1561 1559 1557 1554 1551 1549 1546 1543 1539 1535 1531 1527
1551 1558 1555 1556 1555 1555 1552 1553 1556 1557 1553 1553 1559 1550 1544 1544 1548 1551 1552 1553 1554 1554 1556 1557 1557 1556 1557 1558 1558 1558 1559 1558 1557 1555 1553 1550 1548 1545 1542 1539 1536 1532 1528 1524
1552 1556 1556 1557 1554 1556 1555 1556 1557 1558 1561 1555 1555 1559 1548 1545 1547 1547 1546 1547 1547 1548 1550 1551 1550 1550 1551 1552 1553 1554 1554 1554 1553 1551 1549 1546 1544 1541 1538 1535 1531 1527 1524 1520
1553 1555 1557 1556 1555 1557 1556 1556 1558 1558 1559 1559 1551 1557 1543 1541 1544 1541 1539 1539 1540 1542 1544 1545 1545 1545 1546 1547 1547 1549 1550 1550 1549 1547 1545 1543 1540 1537 1534 1531 1527 1524 1520 1516
1555 1555 1556 1555 1556 1556 1556 1557 1556 1558 1559 1561 1544 1550 1543 1538 1531 1530 1531 1532 1534 1536 1538 1540 1541 1541 1541 1541 1542 1544 1545 1545 1544 1543 1541 1539 1537 1534 1530 1527 1523 1519 1515 1512
1556 1554 1555 1556 1556 1555 1556 1559 1561 1562 1566 1552 1542 1546 1540 1523 1522 1524 1526 1528 1529 1531 1533 1534 1535 1534 1534 1535 1537 1539 1540 1540 1540 1539 1537 1535 1533 1530 1527 1523 1519 1515 1511 1507
1550 1555 1553 1554 1554 1556 1551 1556 1564 1566 1559 1548 1544 1546 1527 1517 1519 1521 1523 1524 1526 1527 1527 1528 1528 1529 1529 1530 1532 1534 1535 1536 1535 1534 1533 1531 1529 1526 1523 1520 1516 1512 1508 1503
1549 1553 1554 1554 1554 1556 1552 1551 1554 1560 1552 1555 1544 1527 1519 1518 1518 1519 1520 1521 1521 1522 1522 1522 1523 1523 1524 1525 1526 1528 1530 1531 1530 1530 1529 1527 1525 1522 1519 1516 1512 1508 1504 1500
1552 1553 1553 1555 1556 1556 1555 1553 1556 1560 1562 1564 1543 1527 1524 1520 1515 1514 1515 1515 1514 1516 1516 1516 1517 1517 1518 1519 1521 1523 1525 1525 1525 1525 1524 1523 1521 1518 1515 1511 1508 1504 1500 1496
1554 1557 1554 1555 1555 1552 1556 1555 1554 1553 1553 1564 1558 1538 1504 1505 1504 1507 1508 1508 1508 1509 1509 1510 1511 1512 1513 1514 1516 1518 1519 1520 1520 1520 1520 1518 1516 1514 1511 1507 1504 1500 1496 1492
1553 1556 1552 1547 1545 1545 1544 1544 1548 1557 1553 1551 1556 1538 1500 1499 1500 1502 1503 1504 1504 1504 1504 1504 1505 1506 1507 1508 1510 1512 1514 1515 1515 1515 1515 1514 1512 1510 1507 1503 1500 1496 1492 1488
1554 1557 1556 1551 1552 1550 1548 1543 1542 1544 1549 1554 1553 1532 1498 1497 1498 1498 1498 1499 1498 1498 1499 1499 1500 1500 1501 1502 1504 1506 1508 1509 1510 1510 1510 1509 1507 1505 1502 1499 1496 1492 1488 1484
1554 1556 1555 1549 1544 1542 1545 1541 1540 1544 1551 1548 1535 1517 1500 1497 1495 1494 1494 1493 1493 1493 1493 1493 1493 1494 1495 1496 1498 1500 1502 1504 1505 1505 1505 1504 1503 1501 1498 1495 1492 1488 1484 1480
1554 1555 1546 1539 1535 1535 1535 1533 1534 1536 1531 1531 1516 1506 1494 1491 1490 1490 1489 1489 1489 1488 1487 1486 1486 1487 1488 1490 1492 1494 1496 1498 1499 1500 1500 1499 1498 1496 1494 1491 1488 1484 1480 1476
1553 1554 1546 1541 1532 1532 1533 1526 1524 1523 1520 1514 1508 1500 1486 1488 1486 1485 1485 1485 1483 1482 1480 1480 1479 1480 1481 1482 1485 1488 1490 1492 1493 1494 1495 1494 1493 1492 1490 1487 1484 1480 1476 1472
1550 1551 1549 1546 1532 1533 1532 1511 1510 1511 1503 1503 1505 1493 1484 1484 1482 1482 1481 1479 1477 1475 1474 1472 1472 1472 1473 1475 1478 1481 1484 1486 1488 1489 1489 1489 1489 1487 1485 1483 1480 1476 1472 1468
1544 1545 1547 1547 1539 1544 1509 1495 1494 1496 1492 1492 1488 1484 1482 1480 1479 1477 1475 1473 1470 1469 1467 1465 1465 1465 1467 1469 1472 1475 1478 1480 1482 1483 1484 1484 1484 1483 1481 1479 1476 1472 1468 1464
1540 1541 1545 1547 1545 1526 1503 1492 1492 1494 1491 1481 1482 1479 1477 1475 1475 1471 1469 1466 1464 1462 1461 1459 1458 1459 1460 1462 1465 1468 1471 1474 1476 1477 1479 1479 1479 1478 1477 1475 1472 1468 1464 1460
1541 1540 1544 1545 1546 1533 1500 1490 1488 1492 1493 1472 1472 1472 1471 1473 1478 1467 1462 1460 1458 1456 1454 1452 1452 1452 1453 1455 1458 1461 1464 1467 1469 1471 1473 1474 1474 1473 1472 1470 1468 1465 1461 1457
1543 1542 1544 1541 1537 1516 1489 1488 1491 1498 1483 1466 1465 1465 1466 1467 1465 1459 1456 1454 1452 1450 1448 1446 1445 1444 1445 1448 1451 1454 1457 1459 1463 1466 1467 1468 1468 1468 1468 1466 1464 1461 1458 1454
1525 1532 1533 1530 1530 1512 1480 1485 1486 1474 1464 1463 1461 1461 1460 1458 1456 1453 1450 1448 1445 1443 1441 1439 1438 1437 1438 1440 1443 1446 1449 1453 1457 1459 1461 1462 1463 1463 1463 1462 1460 1458 1455 1451
1503 1501 1502 1501 1490 1474 1471 1469 1465 1464 1462 1460 1458 1456 1455 1452 1449 1447 1444 1441 1438 1436 1434 1432 1431 1431 1431 1432 1435 1438 1442 1446 1449 1452 1454 1456 1458 1458 1458 1458 1456 1454 1452 1448
1487 1485 1486 1483 1472 1469 1467 1465 1463 1462 1458 1455 1453 1451 1449 1446 1442 1439 1436 1433 1430 1428 1426 1424 1423 1422 1422 1424 1427 1431 1436 1439 1442 1445 1448 1450 1452 1453 1453 1453 1452 1450 1448 1445
1479 1482 1481 1474 1466 1465 1460 1458 1456 1453 1451 1448 1446 1444 1442 1439 1435 1432 1428 1425 1423 1420 1418 1416 1414 1413 1413 1416 1419 1424 1427 1431 1435 1438 1441 1444 1446 1447 1448 1448 1448 1447 1445 1442
1471 1474 1474 1463 1460 1460 1452 1451 1451 1448 1445 1442 1440 1435 1433 1432 1428 1424 1420 1417 1414 1412 1409 1406 1405 1404 1405 1407 1411 1415 1418 1423 1427 1430 1434 1437 1439 1441 1443 1443 1444 1443 1442 1439